Location: Colorado Springs
(38.8340°N, 104.8210°W)
Time: 07:42:18
(UTC-06:00)

Vanguard 1 - Visible Passes

Search period start: 21 April 2018 00:00
Search period end: 01 May 2018 00:00
Orbit: 650 x 3833 km, 34.2° (Epoch: 20 April)

Date Brightness Start Highest point End Pass type
(mag) Time Alt. Az. Time Alt. Az. Time Alt. Az.
21 Apr 10.8 03:04:37 50° SE 03:04:37 50° SE 03:12:55 10° ESE visible
21 Apr 11.8 05:17:21 12° W 05:24:23 38° SSW 05:37:08 10° SE visible
22 Apr 10.6 03:24:40 52° S 03:24:40 52° S 03:34:07 10° ESE visible
22 Apr 12.1 05:38:12 10° W 05:45:31 31° SSW 05:57:26 10° SSE visible
23 Apr 10.7 03:44:47 45° SSW 03:45:04 46° SSW 03:55:10 10° SE visible
24 Apr 12.6 01:52:14 12° ESE 01:52:14 12° ESE 01:52:44 10° ESE visible
24 Apr 10.9 04:04:59 36° SW 04:06:05 38° SSW 04:15:59 10° SE visible
24 Apr 11.6 21:24:48 10° S 21:24:53 10° S 21:24:53 10° S visible
25 Apr 12.4 02:12:30 15° ESE 02:12:30 15° ESE 02:13:52 10° ESE visible
25 Apr 11.2 04:25:15 28° SW 04:27:08 30° SSW 04:36:28 10° SE visible
25 Apr 11.5 21:44:27 10° SSW 21:45:23 13° SSW 21:45:23 13° SSW visible
26 Apr 12.2 02:32:51 17° SE 02:32:51 17° SE 02:34:53 10° ESE visible
26 Apr 11.6 04:45:36 20° SW 04:48:13 24° SSW 04:56:31 10° SSE visible
26 Apr 11.4 22:04:42 10° SW 22:05:50 15° SSW 22:05:50 15° SSW visible
27 Apr 12.1 02:53:16 18° SE 02:53:16 18° SE 02:55:45 10° SE visible
27 Apr 11.9 05:06:02 14° SW 05:09:21 17° SSW 05:15:52 10° SSE visible
27 Apr 11.5 22:25:15 10° SW 22:26:14 15° SW 22:26:14 15° SW visible
28 Apr 12.1 03:13:46 18° SSE 03:13:46 18° SSE 03:16:21 10° SE visible
28 Apr 12.2 05:27:49 10° SW 05:30:31 12° SSW 05:33:39 10° S visible
28 Apr 11.1 20:26:34 10° SSW 20:30:46 18° SSE 20:33:50 11° ESE visible
28 Apr 11.7 22:46:00 10° WSW 22:46:35 13° WSW 22:46:35 13° WSW visible
29 Apr 12.2 03:34:19 15° SSE 03:34:19 15° SSE 03:36:34 10° SSE visible
29 Apr 10.7 20:46:38 10° SW 20:51:40 25° SSE 20:54:07 17° ESE visible
29 Apr 11.9 23:06:51 10° WSW 23:06:52 10° WSW 23:06:52 10° WSW visible
30 Apr 12.4 03:54:55 12° S 03:54:55 12° S 03:56:11 10° SSE visible
30 Apr 10.3 21:07:07 10° SW 21:12:33 33° SSE 21:14:21 25° SE visible
